Regional Weather Roundup
Issued by NWS Midland/Odessa, TX

Skip options and go directly to product.
Home | Oldest Version | Previous Version | Current Version | All | Text Only | Save Text | Print | Product List | Glossary On

Skip product version selection by date and time.   
781
ASUS44 KMAF 010410
RWRMAF
MIDLAND AREA WEATHER ROUNDUP
NATIONAL WEATHER SERVICE MIDLAND TX
1100 PM CDT TUE SEP 30 2014

...IN SOUTHWEST TEXAS AND SOUTHEAST NEW MEXICO...

CITY           SKY/WX    TMP DP  RH WIND       PRES   REMARKS
ALPINE         CLEAR     68  55  62 S6        30.00R
ANDREWS        FAIR      76  60  57 SW13      29.84S
ARTESIA        NOT AVBL
BIG SPRING     CLEAR     79  63  58 S14       29.83R
CARLSBAD       CLEAR     67  55  65 NW8       29.82S
DRYDEN           N/A     78  65  63 E9        29.80S
FORT STOCKTON  CLEAR     73  60  63 S13       29.83S
GUAD PASS      CLEAR     68  46  45 W9        29.99R
HOBBS          CLEAR     68  54  60 CALM      29.86S
MARFA          CLEAR     61  54  77 NE5       29.99R
MIDLAND AIRPK  NOT AVBL
MIDLAND INTL   CLEAR     77  64  64 S13       29.82R
ODESSA         CLEAR     77  63  61 S10       29.84R
PECOS          CLEAR     74  60  60 CALM      29.80R
PRESIDIO       FAIR      77  61  56 N5        29.81S
SEMINOLE       CLEAR     70  55  59 W6        29.84S
SNYDER         CLEAR     73  65  76 S8        29.80S
WINK           CLEAR     76  61  59 SE9       29.80R
$$
...OTHER STATIONS IN TEXAS...

CITY           SKY/WX    TMP DP  RH WIND       PRES   REMARKS
ABILENE        CLEAR     78  59  51 SE13      29.79S
AMARILLO       CLEAR     62  47  57 S8        29.80F
AUSTIN         CLEAR     77  71  82 S7        29.80R
BROWNSVILLE    CLEAR     77  77 100 SE3       29.80R
CORPUS CHRISTI PTCLDY    77  74  90 CALM      29.79R
DALLAS FTW     CLEAR     82  67  60 SE15G21   29.76F
DEL RIO        CLEAR     78  66  66 SE8       29.77R
EL PASO        CLEAR     75  40  28 NE6       29.88R
HOUSTON INT    PTCLDY    76  74  93 SE6       29.80S
LUBBOCK        PTCLDY    68  53  58 W6        29.80S
SAN ANGELO     PTCLDY    78  60  53 S10       29.81R
SAN ANTONIO    PTCLDY    77  70  79 SE7       29.81S
WACO           CLEAR     79  68  69 S8        29.79R
WICHITA FALLS  NOT AVBL
$$
...OTHER LOCATIONS IN NEW MEXICO...

CITY           SKY/WX    TMP DP  RH WIND       PRES   REMARKS
ALAMAGORDO     PTCLDY    66  37  34 S5        29.90S
ALBUQUERQUE    CLEAR     65  32  29 NW5       29.96R
CANNON AFB     CLEAR     64  46  53 NW8       29.86S
CLOVIS           N/A     61  46  59 W7        29.88S
HOLLOMAN AFB   PTCLDY    68  36  31 S6        29.88R
ROSWELL        CLEAR     65  45  48 SW8       29.83S
RUIDOSO        CLEAR     55  34  44 SW3       30.05S
SANTA FE       CLEAR     54  31  41 N12       29.99S
TRUTH OR CONSE CLEAR     69  35  28 W12       29.91R
TUCUMCARI      CLEAR     63  41  44 SW10      29.81R
$$

USA.gov is the U.S. government's official web portal to all federal, state and local government web resources and services.